Weather observations for the past three days for
Port Meadville Airport
Imperial (Metric)
Date Time (edt) Wind (mph) Vis. (mi.) Weather Sky Cond. Temperature (ºF) Relative Humidity Wind Chill (°F) Heat Index (°F) Pressure Precipitation (in)
Air Dwpt 6 hour altimeter (in) sea level (mb) 1 hr 3 hr 6 hr
Max. Min.
24 09:53 N 10 10.00 A Few Clouds FEW026 70 57 64% 29.94 1013.1
24 08:53 N 9 10.00 Fair CLR 66.9 57 71% 29.92 1012.5
24 07:53 N 7 10.00 Fair CLR 64 55.9 64 60.1 75% 29.91 1011.9
24 06:53 NW 3 10.00 Fair CLR 60.1 55.9 86% 29.88 1011.1
24 05:53 Vrbl 6 10.00 Partly Cloudy SCT025 60.1 57 90% 29.85 1009.9
24 04:53 W 5 10.00 Fair CLR 60.1 57 90% 29.82 1009.0
24 03:53 NW 6 10.00 Overcast OVC100 62.1 57.9 86% 29.8 1008.2
24 02:53 W 5 10.00 Fair CLR 62.1 57.9 86% 29.8 1008.1
24 01:53 NW 6 10.00 Overcast OVC095 64 59 71.1 64 84% 29.79 1007.8
24 00:53 NW 6 10.00 Overcast SCT070 OVC095 64.9 59 81% 29.78 1007.5
23 23:53 NW 5 10.00 Overcast FEW065 OVC090 66 60.1 81% 29.77 1007.3
23 22:53 NW 9 10.00 Overcast FEW015 BKN046 OVC080 68 62.1 81% 29.75 1006.5
23 21:53 W 6 10.00 Overcast FEW018 BKN037 OVC065 69.1 62.1 78% 29.73 1005.9
23 20:53 NW 6 10.00 Overcast OVC070 70 63 79% 29.71 1005.1
23 19:53 NW 10 G 16 10.00 Overcast FEW022 OVC036 71.1 64 80.1 71.1 79% 29.71 1004.8 0.01
23 18:53 NW 15 G 23 10.00 Overcast SCT026 BKN036 OVC060 73.9 66 76% 29.69 1004.3
23 17:53 W 12 G 23 10.00 Mostly Cloudy FEW023 SCT030 BKN036 77 69.1 77% 79 29.67 1003.3
23 16:53 W 14 G 22 10.00 Light Rain SCT021 BKN060 OVC085 75 70 84% 75 29.66 1003.3 0.01
23 15:53 SW 9 G 22 10.00 Overcast BKN018 BKN023 OVC030 77 71.1 82% 79 29.66 1003.1 0.01
23 14:53 W 13 G 22 10.00 Overcast OVC019 73.9 71.1 91% 29.68 1004.0
23 13:53 SW 13 G 25 10.00 Overcast OVC024 73.9 69.1 79 69.1 85% 29.69 1004.2 0.21
23 12:53 SW 9 G 24 10.00 Overcast SCT024 BKN034 OVC042 73.9 70 88% 29.7 1004.2 0.02
23 11:53 SW 10 G 20 10.00 Overcast FEW041 OVC050 73 69.1 87% 29.7 1004.6 0.01
23 10:53 W 8 10.00 Light Rain FEW022 BKN048 OVC100 71.1 68 90% 29.72 1005.0 0.13 0.18
23 09:53 W 12 10.00 Light Rain SCT026 BKN090 OVC110 73 68 84% 29.72 1005.1 0.05
23 08:53 SW 12 G 21 10.00 A Few Clouds FEW040 77 68 74% 79 29.72 1004.9
23 07:53 SW 8 10.00 Fair CLR 77 68 78.1 73.9 74% 79 29.73 1005.2
23 06:53 S 8 10.00 Fair CLR 75 68 79% 76 29.75 1005.9
23 05:53 S 7 10.00 Partly Cloudy SCT080 SCT095 75 66.9 76% 76 29.76 1006.4
23 04:53 Vrbl 5 10.00 A Few Clouds FEW065 75 66.9 76% 76 29.77 1006.7
23 03:53 S 6 10.00 A Few Clouds FEW070 75.9 66.9 74% 77 29.8 1007.6
23 02:53 S 7 10.00 Fair CLR 78.1 66.9 69% 80 29.81 1008.1
23 01:53 SW 7 10.00 A Few Clouds FEW055 78.1 66.9 82 77 69% 80 29.84 1008.7
23 00:53 S 7 10.00 Fair CLR 79 66.9 67% 81 29.86 1009.6
22 23:53 S 6 10.00 Fair CLR 78.1 66.9 69% 80 29.87 1010.0
22 22:53 S 5 10.00 Fair CLR 79 68 69% 81 29.88 1010.4
22 21:53 S 5 10.00 Fair CLR 80.1 68 67% 83 29.88 1010.6
22 20:53 Calm 10.00 Fair CLR 82 70 67% 86 29.9 1011.2
22 19:53 Calm 10.00 Fair CLR 82 70 90 81 67% 86 29.91 1011.6
22 18:53 SW 15 G 23 10.00 Mostly Cloudy SCT060 BKN075 84 69.1 61% 88 29.93 1012.1
22 17:53 SW 7 10.00 Fair CLR 86 68 55% 89 29.94 1012.6
22 16:53 Calm 10.00 A Few Clouds FEW090 87.1 72 61% 94 29.96 1013.3
22 15:53 Vrbl 6 10.00 A Few Clouds FEW060 89.1 72 57% 96 29.98 1013.9
22 14:53 N 6 10.00 Partly Cloudy SCT055 84.9 71.1 63% 90 30.01 1014.9
22 13:53 Vrbl 7 10.00 Partly Cloudy SCT050 SCT060 89.1 69.1 90 75 52% 94 30.02 1015.1
22 12:53 SW 9 10.00 Mostly Cloudy BKN055 89.1 66.9 48% 92 30.03 1015.5
22 11:53 Vrbl 6 10.00 Fair CLR 87.1 72 61% 94 30.05 1016.4
22 10:53 SW 6 10.00 Fair CLR 84 72 67% 90 30.07 1017.0
22 09:53 S 3 10.00 Fair CLR 82 73 74% 87 30.08 1017.4
22 08:53 S 7 10.00 Fair CLR 77 70 79% 79 30.09 1017.8
22 07:53 S 5 10.00 Fair CLR 75 69.1 75 71.1 82% 75 30.1 1018.0
22 06:53 S 3 10.00 A Few Clouds FEW049 73 68 84% 30.11 1018.1
22 05:53 Calm 10.00 Mostly Cloudy SCT050 BKN060 71.1 66.9 87% 30.11 1018.4
22 04:53 Calm 10.00 Mostly Cloudy BKN049 72 66.9 84% 30.11 1018.4
22 03:53 Calm 10.00 Mostly Cloudy SCT060 BKN080 72 68 87% 30.11 1018.4
22 02:53 Calm 10.00 Fair CLR 71.1 68 90% 30.11 1018.6
22 01:53 Calm 10.00 Fair CLR 73 69.1 84 73 87% 30.12 1018.6
22 00:53 Calm 10.00 Fair CLR 73.9 69.1 85% 30.14 1019.2
21 23:53 Calm 10.00 Fair CLR 75 69.1 82% 75 30.15 1019.6
21 22:53 S 3 10.00 Fair CLR 75.9 69.1 79% 77 30.15 1019.8
21 21:53 S 3 10.00 Fair CLR 78.1 68 71% 80 30.15 1019.7
21 20:53 Calm 10.00 Fair CLR 80.1 68 67% 83 30.16 1019.9
21 19:53 N 3 10.00 Fair CLR 84 69.1 88 81 61% 88 30.15 1019.6
21 18:53 Calm 10.00 Fair CLR 87.1 70 57% 92 30.15 1019.5
21 17:53 N 3 10.00 Fair CLR 87.1 70 57% 92 30.15 1019.7
21 16:53 W 6 10.00 Fair CLR 87.1 71.1 59% 93 30.17 1020.4
21 15:53 SW 7 10.00 Fair CLR 82.9 68 61% 86 30.18 1020.9
21 14:53 W 8 10.00 Fair CLR 81 70 69% 84 30.21 1021.7
21 13:53 W 8 10.00 Partly Cloudy SCT043 87.1 70 90 75.9 57% 92 30.21 1021.8
21 12:53 Vrbl 6 10.00 A Few Clouds FEW055 87.1 69.1 55% 91 30.23 1022.4
21 11:53 SW 3 10.00 Fair CLR 86 70 59% 91 30.24 1022.8
21 10:53 SW 7 10.00 A Few Clouds FEW065 84 70 63% 88 30.25 1023.2
Date Time (edt) Wind (mph) Vis. (mi.) Weather Sky Cond. Air Dwpt Max. Min. Relative Humidity Wind Chill (°F) Heat Index (°F) altimeter (in) sea level (mb) 1 hr 3 hr 6 hr
6 hour
Temperature (ºF) Pressure Precipitation (in)